Location: Kra?nica
(53.4833°N, 14.6167°E)
Time: 06:50:33
(UTC+00:00)

Cosmos 1850 Rocket - Pass Details

Date: 23 May 2024
Orbit: 753 x 782 km, 74.0° (Epoch: 15 June)

Event Time Altitude Azimuth Distance (km) Brightness Sun altitude
Exits shadow 01:46:17 - 219° (SW) 2,389 5.8 -7.5°
Reaches altitude 10° 01:46:27 10° 220° (SW) 2,324 5.8 -7.5°
Maximum altitude 01:51:41 62° 300° (WNW) 874 4.3 -7.0°
Drops below altitude 10° 01:56:54 10° 22° (NNE) 2,320 7.9 -6.5°
Sets 01:59:19 0° 26° (NNE) 3,245 9.0 -6.2°
